Location: Casilda
(33.0440°S, 61.1680°W)
Time: 14:30:53
(UTC-03:00)

ISS - Pass Details

Date: 27 June 2017
Orbit: 401 x 408 km, 51.6° (Epoch: 28 June)

Event Time Altitude Azimuth Distance (km) Brightness Sun altitude
Rises 19:32:47 0° 317° (NW) 2,324 1.1 -17.4°
Reaches altitude 10° 19:34:52 10° 318° (NW) 1,470 -0.1 -17.8°
Maximum altitude 19:38:09 82° 44° (NE) 420 -3.9 -18.5°
Enters shadow 19:38:32 67° 115° (ESE) 451 -3.9 -18.5°
